Cherokee, IA

6:59 AM CDT on June 28, 2017 (GMT -0500)
Cherokee Municipal

Weather History for KCKP - November, 2012

Change the Weather History Date:

Saturday, November 24, 2012

  Actual Average Record
Temperature  
Mean Temperature 28 °F -  
Max Temperature 42 °F 37 °F 64 °F (2011)
Min Temperature 15 °F 17 °F -3 °F (1985)
Degree Days  
Heating Degree Days 36    
Moisture  
Dew Point 12 °F    
Average Humidity 49    
Maximum Humidity 75    
Minimum Humidity 23    
Precipitation  
Precipitation 0.00 in - - ()
Sea Level Pressure  
Sea Level Pressure 30.07 in    
Wind  
Wind Speed 5 mph (South)    
Max Wind Speed 21 mph    
Max Gust Speed 28 mph    
Visibility 10 miles    
Events      
Averages and records for this station are not official NWS values.
T = Trace of Precipitation, MM = Missing Value Source: NWS Daily Summary

Daily Weather History Graph

Daily Weather History Graph

Search for Another Location

Airport or City:

Trip Planner

Search our weather history database for the weather conditions in past years. The results will help you decide how hot, cold, wet, or windy it might be!

Date:

Astronomy

Nov. 24, 2012 Rise Set
Actual Time 7:25 AM CST 4:52 PM CST
Civil Twilight 6:54 AM CST 5:23 PM CST
Nautical Twilight 6:19 AM CST 5:58 PM CST
Astronomical Twilight 5:45 AM CST 6:32 PM CST
Moon 2:41 PM CST (11/24) 3:39 AM CST (11/24)
Length of Visible Light 10h 29m
Length of Day
9h 26m
Waxing Gibbous, 87% of the Moon is Illuminated
Nov 24
Waxing Gibbous
Nov 28
Full
Dec 6
Last Quarter
Dec 13
New
Dec 19
First Quarter

Hourly Weather History & Observations

Time (CST) Temp. Windchill Dew Point Humidity Pressure Visibility Wind Dir Wind Speed Gust Speed Precip Events Conditions
12:15 AM 18.1 °F - 10.2 °F 71% 30.36 in 10.0 mi Calm Calm - N/A   Clear
12:35 AM 17.6 °F - 9.0 °F 69% 30.36 in 10.0 mi Calm Calm - N/A   Clear
12:55 AM 17.6 °F 12.3 °F 9.1 °F 69% 30.36 in 10.0 mi East 3.5 mph - N/A   Clear
1:15 AM 16.7 °F - 8.4 °F 70% 30.35 in 10.0 mi Calm Calm - N/A   Clear
1:35 AM 16.7 °F - 8.6 °F 70% 30.33 in 10.0 mi Calm Calm - N/A   Clear
1:55 AM 15.8 °F - 7.7 °F 70% 30.33 in 10.0 mi Calm Calm - N/A   Clear
2:15 AM 16.7 °F - 8.4 °F 70% 30.32 in 10.0 mi Calm Calm - N/A   Clear
2:35 AM 16.5 °F - 8.8 °F 72% 30.33 in 10.0 mi Calm Calm - N/A   Clear
2:55 AM 15.8 °F - 9.1 °F 75% 30.32 in 10.0 mi Calm Calm - N/A   Clear
3:15 AM 16.2 °F 10.6 °F 8.6 °F 72% 30.32 in 10.0 mi South 3.5 mph - N/A   Clear
3:35 AM 15.8 °F - 9.0 °F 74% 30.31 in 10.0 mi Calm Calm - N/A   Clear
3:55 AM 17.6 °F - 10.6 °F 74% 30.30 in 10.0 mi Calm Calm - N/A   Mostly Cloudy
4:15 AM 18.5 °F - 10.9 °F 72% 30.29 in 10.0 mi Calm Calm - N/A   Overcast
4:35 AM 18.5 °F - 11.3 °F 73% 30.29 in 10.0 mi Calm Calm - N/A   Mostly Cloudy
4:55 AM 18.9 °F - 11.3 °F 72% 30.28 in 10.0 mi Calm Calm - N/A   Clear
5:15 AM 19.9 °F - 12.7 °F 74% 30.27 in 10.0 mi Calm Calm - N/A   Scattered Clouds
5:35 AM 21.2 °F - 12.2 °F 68% 30.27 in 10.0 mi Calm Calm - N/A   Scattered Clouds
5:55 AM 21.2 °F 14.9 °F 12.7 °F 70% 30.27 in 10.0 mi SSE 4.6 mph - N/A   Scattered Clouds
6:15 AM 21.2 °F 16.4 °F 12.9 °F 70% 30.27 in 10.0 mi South 3.5 mph - N/A   Scattered Clouds
6:35 AM 21.7 °F 15.5 °F 13.3 °F 70% 30.26 in 10.0 mi South 4.6 mph - N/A   Clear
6:55 AM 21.9 °F 17.2 °F 13.6 °F 70% 30.26 in 10.0 mi SE 3.5 mph - N/A   Clear
7:15 AM 22.3 °F 16.1 °F 13.8 °F 70% 30.25 in 10.0 mi SE 4.6 mph - N/A   Scattered Clouds
7:35 AM 22.6 °F 15.3 °F 14.5 °F 71% 30.24 in 10.0 mi SE 5.8 mph - N/A   Scattered Clouds
7:55 AM 23.2 °F 16.0 °F 14.0 °F 68% 30.23 in 10.0 mi SSE 5.8 mph - N/A   Clear
8:15 AM 23.7 °F 16.6 °F 14.4 °F 67% 30.21 in 10.0 mi SE 5.8 mph - N/A   Clear
8:35 AM 23.9 °F 13.5 °F 14.0 °F 66% 30.20 in 10.0 mi SSE 10.4 mph - N/A   Clear
8:55 AM 24.8 °F 15.3 °F 14.2 °F 64% 30.20 in 10.0 mi SE 9.2 mph - N/A   Clear
9:15 AM 25.7 °F 16.4 °F 14.4 °F 62% 30.20 in 10.0 mi SSE 9.2 mph - N/A   Clear
9:35 AM 26.4 °F 16.6 °F 14.0 °F 59% 30.19 in 10.0 mi SSE 10.4 mph - N/A   Clear
9:55 AM 28.0 °F 17.5 °F 14.2 °F 56% 30.17 in 10.0 mi SSE 12.7 mph - N/A   Scattered Clouds
10:15 AM 29.8 °F 18.9 °F 14.2 °F 52% 30.16 in 10.0 mi South 15.0 mph - N/A   Scattered Clouds
10:35 AM 31.1 °F 20.1 °F 13.3 °F 48% 30.15 in 10.0 mi South 16.1 mph - N/A   Mostly Cloudy
10:55 AM 32.5 °F 23.2 °F 12.6 °F 44% 30.13 in 10.0 mi SSE 12.7 mph - N/A   Overcast
11:15 AM 33.8 °F 24.8 °F 12.6 °F 42% 30.11 in 10.0 mi SSE 12.7 mph - N/A   Overcast
11:35 AM 34.7 °F 25.5 °F 11.3 °F 38% 30.10 in 10.0 mi SSE 13.8 mph 19.6 mph N/A   Scattered Clouds
11:55 AM 36.1 °F 26.9 °F 11.1 °F 36% 30.06 in 10.0 mi SSE 15.0 mph 19.6 mph N/A   Clear
12:15 PM 37.4 °F 28.2 °F 10.0 °F 32% 30.04 in 10.0 mi SSE 16.1 mph 20.7 mph N/A   Clear
12:35 PM 38.3 °F 29.3 °F 9.7 °F 31% 30.01 in 10.0 mi SSE 16.1 mph 19.6 mph N/A   Clear
12:55 PM 39.0 °F 30.3 °F 9.0 °F 29% 29.99 in 10.0 mi SSE 16.1 mph - N/A   Clear
1:15 PM 40.8 °F 32.9 °F 7.9 °F 26% 29.96 in 10.0 mi SSE 15.0 mph 21.9 mph N/A   Clear
1:35 PM 41.0 °F 32.2 °F 7.3 °F 25% 29.95 in 10.0 mi SSE 18.4 mph 25.3 mph N/A   Clear
1:55 PM 41.4 °F 32.7 °F 6.8 °F 24% 29.94 in 10.0 mi SSE 18.4 mph 23.0 mph N/A   Scattered Clouds
2:15 PM 41.9 °F 32.8 °F 6.4 °F 23% 29.93 in 10.0 mi South 20.7 mph 27.6 mph N/A   Scattered Clouds
2:35 PM 42.3 °F 33.3 °F 6.4 °F 23% 29.92 in 10.0 mi South 20.7 mph 27.6 mph N/A   Clear
2:55 PM 42.1 °F 34.2 °F 7.2 °F 24% 29.90 in 10.0 mi South 16.1 mph 23.0 mph N/A   Clear
3:15 PM 41.2 °F 32.7 °F 7.7 °F 25% 29.90 in 10.0 mi South 17.3 mph 23.0 mph N/A   Clear
3:35 PM 40.6 °F 32.3 °F 7.7 °F 26% 29.89 in 10.0 mi South 16.1 mph - N/A   Clear
3:55 PM 40.3 °F 32.6 °F 7.9 °F 26% 29.89 in 10.0 mi South 13.8 mph - N/A   Clear
4:15 PM 40.1 °F 33.2 °F 8.4 °F 27% 29.89 in 10.0 mi South 11.5 mph - N/A   Clear
4:35 PM 40.1 °F 33.2 °F 8.8 °F 28% 29.89 in 10.0 mi SSW 11.5 mph 18.4 mph N/A   Clear
4:55 PM 39.2 °F 33.0 °F 9.1 °F 29% 29.88 in 10.0 mi South 9.2 mph - N/A   Clear
5:15 PM 38.3 °F 31.9 °F 10.2 °F 31% 29.88 in 10.0 mi South 9.2 mph - N/A   Clear
5:35 PM 37.9 °F 32.1 °F 10.8 °F 33% 29.87 in 10.0 mi South 8.1 mph - N/A   Clear
5:55 PM 37.6 °F 31.0 °F 11.3 °F 34% 29.87 in 10.0 mi South 9.2 mph - N/A   Mostly Cloudy
6:15 PM 37.0 °F 30.4 °F 11.7 °F 35% 29.86 in 10.0 mi South 9.2 mph - N/A   Scattered Clouds
6:35 PM 37.0 °F 29.8 °F 12.2 °F 36% 29.85 in 10.0 mi South 10.4 mph - N/A   Clear
6:55 PM 37.4 °F 30.8 °F 12.2 °F 36% 29.86 in 10.0 mi South 9.2 mph - N/A   Scattered Clouds
7:15 PM 37.4 °F 32.8 °F 12.7 °F 36% 29.85 in 10.0 mi South 5.8 mph - N/A   Scattered Clouds
7:35 PM 37.4 °F 33.8 °F 13.8 °F 38% 29.85 in 10.0 mi South 4.6 mph - N/A   Clear
7:55 PM 37.4 °F 31.4 °F 14.0 °F 38% 29.84 in 10.0 mi South 8.1 mph - N/A   Clear
8:15 PM 38.3 °F 32.5 °F 13.8 °F 37% 29.83 in 10.0 mi SSW 8.1 mph - N/A   Clear
8:35 PM 38.3 °F 33.2 °F 14.0 °F 37% 29.83 in 10.0 mi SSW 6.9 mph - N/A   Scattered Clouds
8:55 PM 38.7 °F 35.2 °F 14.0 °F 37% 29.84 in 10.0 mi SSW 4.6 mph - N/A   Scattered Clouds
9:15 PM 38.3 °F 35.9 °F 14.5 °F 38% 29.84 in 10.0 mi SSW 3.5 mph - N/A   Clear
9:35 PM 38.3 °F 34.8 °F 15.1 °F 39% 29.84 in 10.0 mi SW 4.6 mph - N/A   Clear
9:55 PM 37.4 °F 34.9 °F 16.3 °F 42% 29.84 in 10.0 mi SW 3.5 mph - N/A   Clear
10:15 PM 37.6 °F 35.1 °F 15.8 °F 41% 29.84 in 10.0 mi SSW 3.5 mph - N/A   Clear
10:35 PM 38.1 °F 34.6 °F 16.5 °F 42% 29.83 in 10.0 mi SSW 4.6 mph - N/A   Mostly Cloudy
10:55 PM 37.0 °F - 16.7 °F 44% 29.84 in 10.0 mi Calm Calm - N/A   Scattered Clouds
11:15 PM 37.6 °F - 18.1 °F 45% 29.84 in 10.0 mi Calm Calm - N/A   Clear
11:35 PM 38.8 °F 35.4 °F 17.6 °F 42% 29.84 in 10.0 mi SSW 4.6 mph - N/A   Mostly Cloudy
11:55 PM 39.9 °F 37.8 °F 16.9 °F 39% 29.85 in 10.0 mi SW 3.5 mph - N/A   Scattered Clouds